Location: Ch�risy
(50.2331°N, 2.9131°E)
Time: 23:31:37
(UTC+00:00)

H-2A R/B - Pass Details

Date: 17 January 2021
Orbit: 577 x 655 km, 98.5° (Epoch: 01 March)

Event Time Altitude Azimuth Distance (km) Brightness Sun altitude
Rises 17:38:54 0° 12° (NNE) 2,990 5.3 -12.6°
Reaches altitude 10° 17:41:09 10° 10° (N) 2,069 4.5 -13.0°
Maximum altitude 17:45:38 68° 289° (WNW) 697 2.5 -13.7°
Drops below altitude 10° 17:50:00 10° 206° (SSW) 2,018 5.3 -14.3°
Sets 17:52:11 0° 204° (SSW) 2,909 6.1 -14.7°
